,,Stat5,,Stat1,,Stat2,,Stat3,,Stat4,,Wind1,,Wind1,
time,status,PA1M_AVG,status,PR1M_SUM,status,RH1M_AVG,status,SR1M_AVG,status,TA1M_AVG,status,W1dAve1m,status,W1sAve1m,
2001-08-18, 00:00:00,VALID,918.89,VALID,0,VALID,96.7551,VALID,0,VALID,20.219,VALID,9,VALID,1.36895,
2001-08-18, 00:01:00,VALID,918.895,VALID,0,VALID,96.7551,VALID,0,VALID,20.219,VALID,1,VALID,0.629464,
2001-08-18, 00:02:00,VALID,918.893,VALID,0,VALID,96.7043,VALID,0,VALID,20.219,VALID,16,VALID,1.1508,
2001-08-18, 00:03:00,VALID,918.854,VALID,0,VALID,96.6051,VALID,0.0169808,VALID,20.2155,VALID,13,VALID,1.32257,
2001-08-18, 00:04:00,VALID,918.827,VALID,0,VALID,96.4932,VALID,0.0169808,VALID,20.2093,VALID,10,VALID,1.15379,
2001-08-18, 00:05:00,VALID,918.802,VALID,0,VALID,96.4652,VALID,0.0169808,VALID,20.2125,VALID,16,VALID,1.18589,
2001-08-18, 00:06:00,VALID,918.79,VALID,0,VALID,96.4639,VALID,0.0169808,VALID,20.2093,VALID,16,VALID,0.921464,
2001-08-18, 00:07:00,VALID,918.789,VALID,0,VALID,96.4741,VALID,0,VALID,20.216,VALID,17,VALID,1.26518,
2001-08-18, 00:08:00,VALID,918.795,VALID,0,VALID,96.5237,VALID,0.0169808,VALID,20.2153,VALID,13,VALID,0.916016,
2001-08-18, 00:09:00,VALID,918.796,VALID,0,VALID,96.3711,VALID,0.0169808,VALID,20.2193,VALID,19,VALID,0.913429,
2001-08-18, 00:10:00,VALID,918.771,VALID,0,VALID,96.1765,VALID,0,VALID,20.2125,VALID,13,VALID,1.11867,
2001-08-18, 00:11:00,VALID,918.778,VALID,0,VALID,96.0672,VALID,0,VALID,20.2096,VALID,358,VALID,0.661305,
2001-08-18, 00:12:00,VALID,918.763,VALID,0,VALID,96.0875,VALID,0.0169808,VALID,20.222,VALID,360,VALID,0.701522,
2001-08-18, 00:13:00,VALID,918.747,VALID,0,VALID,96.0341,VALID,0,VALID,20.2227,VALID,12,VALID,0.816406,
2001-08-18, 00:14:00,VALID,918.707,VALID,0,VALID,96.0087,VALID,0.0339617,VALID,20.2125,VALID,8,VALID,0.784467,
2001-08-18, 00:15:00,VALID,918.68,VALID,0,VALID,96.0201,VALID,0.0169808,VALID,20.1802,VALID,2,VALID,0.869575,
2001-08-18, 00:16:00,VALID,918.655,VALID,0,VALID,96.1791,VALID,0,VALID,20.1706,VALID,8,VALID,0.844618,
2001-08-18, 00:17:00,VALID,918.63,VALID,0,VALID,96.2655,VALID,0.0169808,VALID,20.1735,VALID,2,VALID,0.491268,
2001-08-18, 00:18:00,VALID,918.609,VALID,0,VALID,96.2757,VALID,0.0339617,VALID,20.1571,VALID,15,VALID,0.6856,
2001-08-18, 00:19:00,VALID,918.608,VALID,0,VALID,96.3724,VALID,0.0169808,VALID,20.1574,VALID,22,VALID,0.559375,
2001-08-18, 00:20:00,VALID,918.594,VALID,0,VALID,96.3749,VALID,0.0169808,VALID,20.1703,VALID,9,VALID,0.499527,
2001-08-18, 00:21:00,VALID,918.575,VALID,0,VALID,96.3368,VALID,0,VALID,20.1507,VALID,17,VALID,0.888725,
2001-08-18, 00:22:00,VALID,918.54,VALID,0,VALID,96.3546,VALID,0,VALID,20.1477,VALID,18,VALID,0.944046,
2001-08-18, 00:23:00,VALID,918.529,VALID,0,VALID,96.2706,VALID,0.0339617,VALID,20.1256,VALID,13,VALID,1.05658,
2001-08-18, 00:24:00,VALID,918.536,VALID,0,VALID,96.3495,VALID,0.0509425,VALID,20.0925,VALID,2,VALID,1.08854,
2001-08-18, 00:25:00,VALID,918.532,VALID,0,VALID,96.4677,VALID,0.0339617,VALID,20.0669,VALID,10,VALID,0.974392,
2001-08-18, 00:26:00,VALID,918.545,VALID,0,VALID,96.5657,VALID,0.0169808,VALID,20.0476,VALID,13,VALID,0.986213,
2001-08-18, 00:27:00,VALID,918.56,VALID,0,VALID,96.731,VALID,0,VALID,20.0319,VALID,9,VALID,0.454603,
2001-08-18, 00:28:00,VALID,918.552,VALID,0,VALID,96.8416,VALID,0.0339617,VALID,20.0317,VALID,9,VALID,0.748884,
2001-08-18, 00:29:00,VALID,918.56,VALID,0,VALID,96.895,VALID,-0.0339617,VALID,20.0101,VALID,21,VALID,0.922112,
2001-08-18, 00:30:00,VALID,918.568,VALID,0,VALID,96.9331,VALID,-0.0679233,VALID,20.0009,VALID,12,VALID,0.913218,
2001-08-18, 00:31:00,VALID,918.572,VALID,0,VALID,97.0133,VALID,-0.101885,VALID,19.9979,VALID,12,VALID,0.703758,
2001-08-18, 00:32:00,VALID,918.576,VALID,0,VALID,97.0921,VALID,-0.0849042,VALID,19.9847,VALID,15,VALID,1.04853,
2001-08-18, 00:33:00,VALID,918.591,VALID,0,VALID,97.1086,VALID,-0.101885,VALID,19.9882,VALID,9,VALID,0.834852,
2001-08-18, 00:34:00,VALID,918.58,VALID,0,VALID,97.087,VALID,-0.101885,VALID,19.9783,VALID,6,VALID,1.12674,
2001-08-18, 00:35:00,VALID,918.588,VALID,0,VALID,97.0412,VALID,-0.0679233,VALID,19.978,VALID,7,VALID,1.30836,
2001-08-18, 00:36:00,VALID,918.57,VALID,0,VALID,97.1366,VALID,-0.101885,VALID,19.9686,VALID,9,VALID,0.91723,
2001-08-18, 00:37:00,VALID,918.56,VALID,0,VALID,97.1684,VALID,-0.0679233,VALID,19.9524,VALID,344,VALID,0.817411,
2001-08-18, 00:38:00,VALID,918.547,VALID,0,VALID,97.2307,VALID,-0.101885,VALID,19.9686,VALID,2,VALID,0.614583,
2001-08-18, 00:39:00,VALID,918.525,VALID,0,VALID,97.1748,VALID,-0.101885,VALID,19.9591,VALID,2,VALID,0.823269,
2001-08-18, 00:40:00,VALID,918.515,VALID,0,VALID,97.1875,VALID,-0.0849042,VALID,19.9425,VALID,14,VALID,0.557221,
2001-08-18, 00:41:00,VALID,918.52,VALID,0,VALID,97.1926,VALID,-0.101885,VALID,19.9562,VALID,303,VALID,0.474669,
2001-08-18, 00:42:00,VALID,918.515,VALID,0,VALID,97.1417,VALID,-0.101885,VALID,19.9395,VALID,233,VALID,0.400391,
2001-08-18, 00:43:00,VALID,918.508,VALID,0,VALID,97.1086,VALID,-0.0849042,VALID,19.9236,VALID,280,VALID,0.232422,
2001-08-18, 00:44:00,VALID,918.478,VALID,0,VALID,97.1506,VALID,-0.0849042,VALID,19.9201,VALID,288,VALID,0.142463,
2001-08-18, 00:45:00,VALID,918.441,VALID,0,VALID,97.1786,VALID,-0.0849042,VALID,19.9271,VALID,267,VALID,0.0532095,
2001-08-18, 00:46:00,VALID,918.412,VALID,0,VALID,97.2383,VALID,-0.101885,VALID,19.9368,VALID,275,VALID,0.187723,
2001-08-18, 00:47:00,VALID,918.366,VALID,0,VALID,97.2587,VALID,-0.0849042,VALID,19.9494,VALID,16,VALID,0.658617,
2001-08-18, 00:48:00,VALID,918.339,VALID,0,VALID,97.1976,VALID,-0.101885,VALID,19.9465,VALID,23,VALID,0.888302,
2001-08-18, 00:49:00,VALID,918.343,VALID,0,VALID,97.1188,VALID,-0.101885,VALID,19.9325,VALID,17,VALID,0.812711,
2001-08-18, 00:50:00,VALID,918.348,VALID,0,VALID,97.0234,VALID,-0.101885,VALID,19.9238,VALID,7,VALID,1.05019,
2001-08-18, 00:51:00,VALID,918.358,VALID,0,VALID,97.101,VALID,-0.101885,VALID,19.9007,VALID,2,VALID,0.67513,
2001-08-18, 00:52:00,VALID,918.354,VALID,0,VALID,97.1798,VALID,-0.0849042,VALID,19.9109,VALID,13,VALID,1.46962,
2001-08-18, 00:53:00,VALID,918.341,VALID,0,VALID,97.2472,VALID,-0.0849042,VALID,19.8943,VALID,18,VALID,1.32445,
2001-08-18, 00:54:00,VALID,918.35,VALID,0,VALID,97.1862,VALID,-0.0849042,VALID,19.898,VALID,12,VALID,1.77069,
2001-08-18, 00:55:00,VALID,918.339,VALID,0,VALID,97.1926,VALID,-0.0849042,VALID,19.8486,VALID,9,VALID,1.39621,
2001-08-18, 00:56:00,VALID,918.325,VALID,0,VALID,97.1824,VALID,-0.0849042,VALID,19.8299,VALID,9,VALID,1.12382,
2001-08-18, 00:57:00,VALID,918.314,VALID,0,VALID,97.3032,VALID,-0.0849042,VALID,19.8168,VALID,10,VALID,0.891681,
2001-08-18, 00:58:00,VALID,918.316,VALID,0,VALID,97.3744,VALID,-0.0849042,VALID,19.8165,VALID,360,VALID,0.730785,
2001-08-18, 00:59:00,VALID,918.322,VALID,0,VALID,97.3693,VALID,-0.0509425,VALID,19.8138,VALID,301,VALID,0.4375,
2001-08-18, 01:00:00,VALID,918.328,VALID,0,VALID,97.3782,VALID,-0.0849042,VALID,19.8043,VALID,14,VALID,0.487847,
2001-08-18, 01:01:00,VALID,918.332,VALID,0,VALID,97.4202,VALID,-0.0849042,VALID,19.7904,VALID,22,VALID,0.83355,
2001-08-18, 01:02:00,VALID,918.329,VALID,0,VALID,97.3973,VALID,-0.0849042,VALID,19.8043,VALID,20,VALID,1.12086,
2001-08-18, 01:03:00,VALID,918.316,VALID,0,VALID,97.3159,VALID,-0.101885,VALID,19.7745,VALID,22,VALID,1.3049,
2001-08-18, 01:04:00,VALID,918.31,VALID,0,VALID,97.2307,VALID,-0.0849042,VALID,19.7681,VALID,22,VALID,1.1308,
2001-08-18, 01:05:00,VALID,918.285,VALID,0,VALID,97.2002,VALID,-0.0849042,VALID,19.7621,VALID,19,VALID,0.536932,
2001-08-18, 01:06:00,VALID,918.27,VALID,0,VALID,97.1938,VALID,-0.0509425,VALID,19.7425,VALID,15,VALID,0.379434,
2001-08-18, 01:07:00,VALID,918.252,VALID,0,VALID,97.1519,VALID,-0.0509425,VALID,19.7295,VALID,19,VALID,0.324535,
2001-08-18, 01:08:00,VALID,918.237,VALID,0,VALID,97.1328,VALID,-0.0509425,VALID,19.7228,VALID,27,VALID,0.599432,
2001-08-18, 01:09:00,VALID,918.204,VALID,0,VALID,97.1277,VALID,-0.0679233,VALID,19.7069,VALID,21,VALID,0.540365,
2001-08-18, 01:10:00,VALID,918.175,VALID,0,VALID,97.0896,VALID,-0.0679233,VALID,19.6972,VALID,333,VALID,0.356337,
2001-08-18, 01:11:00,VALID,918.16,VALID,0,VALID,97.0629,VALID,-0.0339617,VALID,19.6846,VALID,329,VALID,0.292739,
2001-08-18, 01:12:00,VALID,918.16,VALID,0,VALID,97.0934,VALID,0.0679233,VALID,19.657,VALID,14,VALID,0.0310389,
2001-08-18, 01:13:00,VALID,918.155,VALID,0,VALID,97.1112,VALID,0.0339617,VALID,19.657,VALID,47,VALID,0.116741,
2001-08-18, 01:14:00,VALID,918.116,VALID,0,VALID,97.0946,VALID,0,VALID,19.6413,VALID,168,VALID,0.0935133,
2001-08-18, 01:15:00,VALID,918.082,VALID,0,VALID,97.1315,VALID,0.0169808,VALID,19.6314,VALID,168,VALID,0.029772,
2001-08-18, 01:16:00,VALID,918.026,VALID,0,VALID,97.1557,VALID,0.0339617,VALID,19.6384,VALID,168,VALID,0.00211149,
2001-08-18, 01:17:00,VALID,918.001,VALID,0,VALID,97.1862,VALID,0,VALID,19.622,VALID,168,VALID,0,
2001-08-18, 01:18:00,VALID,917.981,VALID,0,VALID,97.1875,VALID,0,VALID,19.6053,VALID,168,VALID,0.00108507,
2001-08-18, 01:19:00,VALID,917.979,VALID,0,VALID,97.1913,VALID,0.0339617,VALID,19.5927,VALID,168,VALID,0,
2001-08-18, 01:20:00,VALID,917.983,VALID,0,VALID,97.1836,VALID,0,VALID,19.5964,VALID,168,VALID,0.0234375,
2001-08-18, 01:21:00,VALID,917.983,VALID,0,VALID,97.1748,VALID,0.0169808,VALID,19.5862,VALID,172,VALID,0.0228041,
2001-08-18, 01:22:00,VALID,917.947,VALID,0,VALID,97.1035,VALID,0.0339617,VALID,19.5671,VALID,173,VALID,0,
2001-08-18, 01:23:00,VALID,917.927,VALID,0,VALID,97.0603,VALID,0.0339617,VALID,19.5442,VALID,173,VALID,0,
2001-08-18, 01:24:00,VALID,917.917,VALID,0,VALID,96.8416,VALID,0.0169808,VALID,19.4992,VALID,144,VALID,0.117399,
2001-08-18, 01:25:00,VALID,917.888,VALID,0,VALID,96.8505,VALID,0,VALID,19.4871,VALID,31,VALID,0.280405,
2001-08-18, 01:26:00,VALID,917.874,VALID,0,VALID,96.8581,VALID,0,VALID,19.4804,VALID,180,VALID,0.486032,
2001-08-18, 01:27:00,VALID,917.854,VALID,0,VALID,96.9611,VALID,0.0169808,VALID,19.4836,VALID,203,VALID,0.620226,
2001-08-18, 01:28:00,VALID,917.845,VALID,0,VALID,97.0311,VALID,0.0169808,VALID,19.4925,VALID,195,VALID,0.14822,
2001-08-18, 01:29:00,VALID,917.83,VALID,0,VALID,97.0438,VALID,-0.0509425,VALID,19.5035,VALID,206,VALID,0.21852,
2001-08-18, 01:30:00,VALID,917.809,VALID,0,VALID,97.0463,VALID,-0.101885,VALID,19.5109,VALID,206,VALID,0,
2001-08-18, 01:31:00,VALID,917.795,VALID,0,VALID,97.0768,VALID,-0.0849042,VALID,19.5166,VALID,206,VALID,0,
2001-08-18, 01:32:00,VALID,917.78,VALID,0,VALID,97.0629,VALID,-0.0849042,VALID,19.5233,VALID,206,VALID,0.182055,
2001-08-18, 01:33:00,VALID,917.776,VALID,0,VALID,97.115,VALID,-0.101885,VALID,19.5305,VALID,205,VALID,0.297508,
2001-08-18, 01:34:00,VALID,917.769,VALID,0,VALID,97.0705,VALID,-0.0849042,VALID,19.5529,VALID,205,VALID,0.18391,
2001-08-18, 01:35:00,VALID,917.788,VALID,0,VALID,97.0501,VALID,-0.101885,VALID,19.5631,VALID,205,VALID,0,
2001-08-18, 01:36:00,VALID,917.783,VALID,0,VALID,96.9255,VALID,-0.118866,VALID,19.576,VALID,205,VALID,0,
2001-08-18, 01:37:00,VALID,917.763,VALID,0,VALID,96.7119,VALID,-0.101885,VALID,19.5564,VALID,205,VALID,0,
2001-08-18, 01:38:00,VALID,917.751,VALID,0,VALID,96.675,VALID,-0.118866,VALID,19.5372,VALID,132,VALID,0,
2001-08-18, 01:39:00,VALID,917.753,VALID,0,VALID,96.5962,VALID,-0.101885,VALID,19.5178,VALID,61,VALID,0.460938,
2001-08-18, 01:40:00,VALID,917.783,VALID,0,VALID,96.6572,VALID,-0.0509425,VALID,19.5042,VALID,61,VALID,0.328795,
2001-08-18, 01:41:00,VALID,917.808,VALID,0,VALID,96.7055,VALID,-0.0849042,VALID,19.5146,VALID,61,VALID,0.282907,
2001-08-18, 01:42:00,VALID,917.811,VALID,0,VALID,96.7488,VALID,-0.101885,VALID,19.5012,VALID,61,VALID,0.256334,
2001-08-18, 01:43:00,VALID,917.821,VALID,0,VALID,96.7475,VALID,-0.101885,VALID,19.5144,VALID,57,VALID,0.408784,
2001-08-18, 01:44:00,VALID,917.831,VALID,0,VALID,96.75,VALID,-0.0509425,VALID,19.5171,VALID,31,VALID,0.570549,
2001-08-18, 01:45:00,VALID,917.855,VALID,0,VALID,96.5707,VALID,0.0339617,VALID,19.5,VALID,25,VALID,0.477865,
2001-08-18, 01:46:00,VALID,917.879,VALID,0,VALID,96.5262,VALID,0,VALID,19.4672,VALID,23,VALID,0.448134,
2001-08-18, 01:47:00,VALID,917.85,VALID,0,VALID,96.6203,VALID,0.0339617,VALID,19.4811,VALID,24,VALID,0.360294,
2001-08-18, 01:48:00,VALID,917.815,VALID,0,VALID,96.6407,VALID,0.0169808,VALID,19.4739,VALID,27,VALID,0.64527,
2001-08-18, 01:49:00,VALID,917.767,VALID,0,VALID,96.511,VALID,0.0169808,VALID,19.4677,VALID,34,VALID,0.457682,
2001-08-18, 01:50:00,VALID,917.742,VALID,0,VALID,96.5987,VALID,0,VALID,19.4737,VALID,35,VALID,0.347064,
2001-08-18, 01:51:00,VALID,917.714,VALID,0,VALID,96.628,VALID,0.0169808,VALID,19.4801,VALID,39,VALID,0.156039,
2001-08-18, 01:52:00,VALID,917.718,VALID,0,VALID,96.5911,VALID,0.0169808,VALID,19.4774,VALID,92,VALID,0.263725,
2001-08-18, 01:53:00,VALID,917.702,VALID,0,VALID,96.5428,VALID,0,VALID,19.4615,VALID,92,VALID,0.0731534,
2001-08-18, 01:54:00,VALID,917.684,VALID,0,VALID,96.4995,VALID,0,VALID,19.4515,VALID,92,VALID,0.199653,
2001-08-18, 01:55:00,VALID,917.656,VALID,0,VALID,96.5084,VALID,0.0169808,VALID,19.4195,VALID,92,VALID,0.207031,
2001-08-18, 01:56:00,VALID,917.643,VALID,0,VALID,96.5822,VALID,0.0169808,VALID,19.3999,VALID,79,VALID,0.0222886,
2001-08-18, 01:57:00,VALID,917.609,VALID,0,VALID,96.6178,VALID,0,VALID,19.3939,VALID,24,VALID,0.237965,
2001-08-18, 01:58:00,VALID,917.615,VALID,0,VALID,96.3686,VALID,0,VALID,19.3452,VALID,23,VALID,0.0375,
2001-08-18, 01:59:00,VALID,917.602,VALID,0,VALID,96.3228,VALID,-0.0509425,VALID,19.3233,VALID,23,VALID,0,
2001-08-18, 02:00:00,VALID,917.584,VALID,0,VALID,96.4054,VALID,-0.0849042,VALID,19.3014,VALID,15,VALID,0,
2001-08-18, 02:01:00,VALID,917.556,VALID,0,VALID,96.7818,VALID,-0.101885,VALID,19.3402,VALID,332,VALID,0.0278716,
2001-08-18, 02:02:00,VALID,917.519,VALID,0,VALID,96.9268,VALID,-0.101885,VALID,19.3693,VALID,334,VALID,0.113636,
2001-08-18, 02:03:00,VALID,917.505,VALID,0,VALID,96.9357,VALID,-0.101885,VALID,19.3757,VALID,353,VALID,0.201606,
2001-08-18, 02:04:00,VALID,917.489,VALID,0,VALID,96.6674,VALID,-0.0849042,VALID,19.3402,VALID,19,VALID,0.0405816,
2001-08-18, 02:05:00,VALID,917.497,VALID,0,VALID,96.3024,VALID,-0.0849042,VALID,19.2562,VALID,19,VALID,0,
2001-08-18, 02:06:00,VALID,917.503,VALID,0,VALID,96.2439,VALID,-0.101885,VALID,19.2209,VALID,19,VALID,0,
2001-08-18, 02:07:00,VALID,917.48,VALID,0,VALID,96.113,VALID,-0.101885,VALID,19.1785,VALID,19,VALID,0,
2001-08-18, 02:08:00,VALID,917.48,VALID,0,VALID,96.1931,VALID,-0.0849042,VALID,19.1333,VALID,19,VALID,0,
2001-08-18, 02:09:00,VALID,917.468,VALID,0,VALID,96.1842,VALID,-0.118866,VALID,19.1014,VALID,19,VALID,0.188345,
2001-08-18, 02:10:00,VALID,917.411,VALID,0,VALID,96.1015,VALID,-0.101885,VALID,19.0463,VALID,21,VALID,0.468961,
2001-08-18, 02:11:00,VALID,917.377,VALID,0,VALID,96.4054,VALID,-0.101885,VALID,19.0276,VALID,21,VALID,0.34233,
2001-08-18, 02:12:00,VALID,917.336,VALID,0,VALID,96.9509,VALID,-0.135847,VALID,19.0696,VALID,21,VALID,0.311415,
2001-08-18, 02:13:00,VALID,917.314,VALID,0,VALID,97.2332,VALID,-0.101885,VALID,19.1017,VALID,20,VALID,0.342231,
2001-08-18, 02:14:00,VALID,917.31,VALID,0,VALID,97.3439,VALID,-0.0509425,VALID,19.0908,VALID,20,VALID,0.140395,
2001-08-18, 02:15:01,VALID,917.301,VALID,0,VALID,97.3299,VALID,0,VALID,19.0968,VALID,19,VALID,0.292863,
2001-08-18, 02:16:00,VALID,917.281,VALID,0,VALID,97.1976,VALID,-0.0169808,VALID,19.0677,VALID,17,VALID,0.496429,
2001-08-18, 02:17:00,VALID,917.264,VALID,0,VALID,97.1163,VALID,0,VALID,19.0285,VALID,11,VALID,0.461411,
2001-08-18, 02:18:00,VALID,917.258,VALID,0,VALID,97.2218,VALID,-0.0509425,VALID,19.0394,VALID,355,VALID,0.194468,
2001-08-18, 02:19:00,VALID,917.279,VALID,0,VALID,97.4176,VALID,-0.0169808,VALID,19.0491,VALID,354,VALID,0.029772,
2001-08-18, 02:20:00,VALID,917.295,VALID,0,VALID,97.5219,VALID,-0.0169808,VALID,19.0483,VALID,354,VALID,0,
2001-08-18, 02:21:00,VALID,917.272,VALID,0,VALID,97.4036,VALID,0,VALID,19.0131,VALID,355,VALID,0,
2001-08-18, 02:22:00,VALID,917.269,VALID,0,VALID,97.3083,VALID,0,VALID,18.9741,VALID,356,VALID,0.200521,
2001-08-18, 02:23:00,VALID,917.259,VALID,0,VALID,97.1709,VALID,0,VALID,18.936,VALID,356,VALID,0.162224,
2001-08-18, 02:24:01,VALID,917.259,VALID,0,VALID,97.1697,VALID,0,VALID,18.8836,VALID,356,VALID,0,
2001-08-18, 02:25:00,VALID,917.265,VALID,0,VALID,97.5092,VALID,0,VALID,18.933,VALID,267,VALID,0.137723,
2001-08-18, 02:26:00,VALID,917.263,VALID,0,VALID,97.7139,VALID,0,VALID,18.9681,VALID,329,VALID,0,
2001-08-18, 02:27:00,VALID,917.259,VALID,0,VALID,97.6885,VALID,0,VALID,18.9711,VALID,19,VALID,0,
2001-08-18, 02:28:00,VALID,917.268,VALID,0,VALID,97.3312,VALID,0,VALID,18.9201,VALID,19,VALID,0,
2001-08-18, 02:29:00,VALID,917.271,VALID,0,VALID,97.04,VALID,0,VALID,18.8295,VALID,19,VALID,0,
2001-08-18, 02:30:01,VALID,917.258,VALID,0,VALID,97.0781,VALID,-0.0339617,VALID,18.7937,VALID,19,VALID,0,
2001-08-18, 02:31:00,VALID,917.237,VALID,0,VALID,97.2294,VALID,-0.0169808,VALID,18.7875,VALID,19,VALID,0,
2001-08-18, 02:32:00,VALID,917.213,VALID,0,VALID,97.349,VALID,0.0169808,VALID,18.7748,VALID,18,VALID,0.349035,
2001-08-18, 02:33:01,VALID,917.176,VALID,0,VALID,97.4927,VALID,0,VALID,18.7681,VALID,17,VALID,0.933066,
2001-08-18, 02:34:00,VALID,917.164,VALID,0,VALID,97.5829,VALID,0,VALID,18.7621,VALID,9,VALID,1.07701,
2001-08-18, 02:35:00,VALID,917.178,VALID,0,VALID,97.7775,VALID,0,VALID,18.7584,VALID,359,VALID,0.675663,
2001-08-18, 02:36:00,VALID,917.192,VALID,0,VALID,97.9161,VALID,0,VALID,18.7554,VALID,358,VALID,0.497677,
2001-08-18, 02:37:01,VALID,917.193,VALID,0,VALID,98.0674,VALID,0,VALID,18.755,VALID,9,VALID,0.460515,
2001-08-18, 02:38:00,VALID,917.197,VALID,0,VALID,98.2594,VALID,0,VALID,18.8073,VALID,27,VALID,0.475852,
2001-08-18, 02:39:01,VALID,917.162,VALID,0,VALID,98.3942,VALID,0.0169808,VALID,18.8458,VALID,14,VALID,0.797092,
2001-08-18, 02:40:00,VALID,917.125,VALID,0,VALID,98.482,VALID,0,VALID,18.8807,VALID,27,VALID,0.956597,
2001-08-18, 02:41:00,VALID,917.103,VALID,0,VALID,98.5328,VALID,-0.0169808,VALID,18.8998,VALID,10,VALID,0.481618,
2001-08-18, 02:42:01,VALID,917.106,VALID,0,VALID,98.5544,VALID,0.0169808,VALID,18.9298,VALID,344,VALID,0.413429,
2001-08-18, 02:43:00,VALID,917.141,VALID,0,VALID,98.4705,VALID,0,VALID,18.9037,VALID,351,VALID,0.274107,
2001-08-18, 02:44:00,VALID,917.156,VALID,0,VALID,98.4451,VALID,0,VALID,18.8647,VALID,355,VALID,0.16714,
2001-08-18, 02:45:00,VALID,917.159,VALID,0,VALID,98.4883,VALID,0,VALID,18.8553,VALID,355,VALID,0.00527872,
2001-08-18, 02:46:01,VALID,917.118,VALID,0,VALID,98.5455,VALID,-0.0169808,VALID,18.8717,VALID,359,VALID,0.150971,
2001-08-18, 02:47:00,VALID,917.087,VALID,0,VALID,98.5837,VALID,-0.0339617,VALID,18.8873,VALID,2,VALID,0.289299,
2001-08-18, 02:48:01,VALID,917.067,VALID,0,VALID,98.5977,VALID,0,VALID,18.897,VALID,9,VALID,0.321181,
2001-08-18, 02:49:00,VALID,917.057,VALID,0,VALID,98.6384,VALID,0,VALID,18.9134,VALID,26,VALID,0.0965712,
2001-08-18, 02:50:00,VALID,917.074,VALID,0,VALID,98.6778,VALID,-0.0169808,VALID,18.943,VALID,26,VALID,0,
2001-08-18, 02:51:01,VALID,917.063,VALID,0,VALID,98.6816,VALID,0,VALID,18.9489,VALID,353,VALID,0.122466,
2001-08-18, 02:52:00,VALID,917.074,VALID,0,VALID,98.6511,VALID,-0.0169808,VALID,18.9199,VALID,279,VALID,0.258482,
2001-08-18, 02:53:00,VALID,917.076,VALID,0,VALID,98.6473,VALID,0,VALID,18.9171,VALID,288,VALID,0.00899621,
2001-08-18, 02:54:00,VALID,917.101,VALID,0,VALID,98.6689,VALID,-0.0169808,VALID,18.9166,VALID,18,VALID,0.257179,
2001-08-18, 02:55:00,VALID,917.13,VALID,0,VALID,98.7058,VALID,-0.0169808,VALID,18.9231,VALID,18,VALID,0.0878378,
2001-08-18, 02:56:00,VALID,917.144,VALID,0,VALID,98.7147,VALID,0,VALID,18.9393,VALID,18,VALID,0.0454545,
2001-08-18, 02:57:01,VALID,917.162,VALID,0,VALID,98.693,VALID,0,VALID,18.93,VALID,296,VALID,0.203125,
2001-08-18, 02:58:00,VALID,917.174,VALID,0,VALID,98.6346,VALID,-0.0169808,VALID,18.8712,VALID,254,VALID,0.484592,
2001-08-18, 02:59:00,VALID,917.193,VALID,0,VALID,98.646,VALID,-0.0169808,VALID,18.862,VALID,260,VALID,0.33318,
2001-08-18, 03:00:01,VALID,917.215,VALID,0,VALID,98.6702,VALID,-0.0169808,VALID,18.8461,VALID,246,VALID,0.431799,
2001-08-18, 03:01:00,VALID,917.215,VALID,0,VALID,98.6536,VALID,-0.0169808,VALID,18.8133,VALID,241,VALID,0.152455,
2001-08-18, 03:02:00,VALID,917.19,VALID,0,VALID,98.6765,VALID,-0.0339617,VALID,18.8041,VALID,211,VALID,0.297112,
2001-08-18, 03:03:00,VALID,917.176,VALID,0,VALID,98.7032,VALID,-0.0169808,VALID,18.7939,VALID,252,VALID,0.510346,
2001-08-18, 03:04:00,VALID,917.143,VALID,0,VALID,98.707,VALID,-0.0339617,VALID,18.7681,VALID,249,VALID,0.425042,
2001-08-18, 03:05:00,VALID,917.114,VALID,0,VALID,98.7287,VALID,-0.0169808,VALID,18.7552,VALID,238,VALID,0.25071,
2001-08-18, 03:06:01,VALID,917.087,VALID,0,VALID,98.7757,VALID,-0.0169808,VALID,18.7587,VALID,223,VALID,0.4375,
2001-08-18, 03:07:00,VALID,917.092,VALID,0,VALID,98.7859,VALID,0,VALID,18.7557,VALID,239,VALID,0.464844,
2001-08-18, 03:08:00,VALID,917.102,VALID,0,VALID,98.8011,VALID,-0.0169808,VALID,18.7423,VALID,250,VALID,0.338695,
2001-08-18, 03:09:01,VALID,917.074,VALID,0,VALID,98.8202,VALID,-0.0169808,VALID,18.7492,VALID,261,VALID,0.345228,
2001-08-18, 03:10:00,VALID,917.053,VALID,0,VALID,98.8406,VALID,-0.0509425,VALID,18.7427,VALID,274,VALID,0.311384,
2001-08-18, 03:11:00,VALID,917.029,VALID,0,VALID,98.8393,VALID,0,VALID,18.7167,VALID,276,VALID,0.31179,
2001-08-18, 03:12:00,VALID,916.989,VALID,0,VALID,98.852,VALID,0,VALID,18.7201,VALID,264,VALID,0.174198,
2001-08-18, 03:13:00,VALID,916.988,VALID,0,VALID,98.8558,VALID,0,VALID,18.7072,VALID,240,VALID,0.533361,
2001-08-18, 03:14:00,VALID,916.986,VALID,0,VALID,98.8571,VALID,0,VALID,18.6978,VALID,219,VALID,0.388731,
2001-08-18, 03:15:01,VALID,916.977,VALID,0,VALID,98.8622,VALID,0,VALID,18.6645,VALID,231,VALID,0.333116,
2001-08-18, 03:16:00,VALID,916.973,VALID,0,VALID,98.8723,VALID,0,VALID,18.6486,VALID,235,VALID,0.136936,
2001-08-18, 03:17:00,VALID,916.956,VALID,0,VALID,98.8978,VALID,-0.0339617,VALID,18.6553,VALID,286,VALID,0.261259,
2001-08-18, 03:18:01,VALID,916.969,VALID,0,VALID,98.9283,VALID,-0.0169808,VALID,18.6585,VALID,281,VALID,0.244299,
2001-08-18, 03:19:00,VALID,916.971,VALID,0,VALID,98.9359,VALID,0,VALID,18.6521,VALID,284,VALID,0.290402,
2001-08-18, 03:20:00,VALID,916.981,VALID,0,VALID,98.9385,VALID,0,VALID,18.6357,VALID,289,VALID,0.138258,
2001-08-18, 03:21:00,VALID,916.986,VALID,0,VALID,98.9423,VALID,0,VALID,18.6327,VALID,301,VALID,0.127111,
2001-08-18, 03:22:00,VALID,916.99,VALID,0,VALID,98.9486,VALID,0,VALID,18.6228,VALID,332,VALID,0.041174,
2001-08-18, 03:23:00,VALID,916.999,VALID,0,VALID,98.9486,VALID,-0.0339617,VALID,18.6069,VALID,358,VALID,0.125237,
2001-08-18, 03:24:01,VALID,917.014,VALID,0,VALID,98.9715,VALID,-0.0169808,VALID,18.6136,VALID,12,VALID,0.0143229,
2001-08-18, 03:25:00,VALID,917.029,VALID,0,VALID,98.969,VALID,-0.0339617,VALID,18.6168,VALID,12,VALID,0,
2001-08-18, 03:26:00,VALID,917.023,VALID,0,VALID,98.9931,VALID,0,VALID,18.6233,VALID,12,VALID,0,
2001-08-18, 03:27:01,VALID,917.016,VALID,0,VALID,98.9868,VALID,-0.0169808,VALID,18.6103,VALID,12,VALID,0,
2001-08-18, 03:28:00,VALID,917.01,VALID,0,VALID,98.9868,VALID,0,VALID,18.594,VALID,13,VALID,0,
2001-08-18, 03:29:00,VALID,917.015,VALID,0,VALID,98.9881,VALID,-0.0169808,VALID,18.5776,VALID,13,VALID,0,
2001-08-18, 03:30:00,VALID,917.043,VALID,0,VALID,98.9817,VALID,-0.0169808,VALID,18.5748,VALID,13,VALID,0,
2001-08-18, 03:31:01,VALID,917.086,VALID,0,VALID,98.9817,VALID,-0.0509425,VALID,18.5552,VALID,13,VALID,0,
2001-08-18, 03:32:00,VALID,917.12,VALID,0,VALID,98.9779,VALID,-0.0169808,VALID,18.5289,VALID,13,VALID,0,
2001-08-18, 03:33:01,VALID,917.138,VALID,0,VALID,98.9855,VALID,0,VALID,18.5331,VALID,13,VALID,0,
2001-08-18, 03:34:00,VALID,917.133,VALID,0,VALID,99.0046,VALID,-0.0169808,VALID,18.5269,VALID,20,VALID,0.430122,
2001-08-18, 03:35:00,VALID,917.109,VALID,0,VALID,98.9919,VALID,-0.0339617,VALID,18.5001,VALID,19,VALID,0.347656,
2001-08-18, 03:36:01,VALID,917.066,VALID,0,VALID,98.9881,VALID,0,VALID,18.5043,VALID,19,VALID,0.286106,